Time,TemperatureF,DewpointF,PressureIn,WindDirection,WindDirectionDegrees,WindSpeedMPH,WindSpeedGustMPH,Humidity,HourlyPrecipIn,Conditions,Clouds,dailyrainin,SolarRadiationWatts/m^2,SoftwareType,DateUTC
2013-03-20 07:50:00,62.7,60.9,29.86,ENE,69,0.0,0.0,94,0.00,,,0.01,30,Wunderground v.1.15,2013-03-20 11:50:00,
2013-03-20 07:55:00,62.9,61.1,29.86,ENE,69,0.0,0.0,94,0.00,,,0.01,37,Wunderground v.1.15,2013-03-20 11:55:00,
2013-03-20 08:00:00,63.1,61.3,29.86,ENE,69,0.0,0.0,94,0.00,,,0.01,88,Wunderground v.1.15,2013-03-20 12:00:00,
2013-03-20 08:05:00,63.4,61.6,29.86,ENE,69,0.0,0.0,94,0.00,,,0.01,102,Wunderground v.1.15,2013-03-20 12:05:00,
2013-03-20 08:15:00,63.9,62.1,29.86,ENE,69,0.0,0.0,94,0.00,,,0.01,116,Wunderground v.1.15,2013-03-20 12:15:00,
2013-03-20 09:00:00,68.9,67.4,29.87,ENE,73,0.0,0.0,95,0.00,,,0.01,280,Wunderground v.1.15,2013-03-20 13:00:00,
2013-03-20 09:10:00,70.3,68.5,29.87,ENE,73,0.0,0.0,94,0.00,,,0.01,315,Wunderground v.1.15,2013-03-20 13:10:00,
2013-03-20 09:15:00,70.9,68.8,29.88,ENE,73,0.0,0.0,93,0.00,,,0.01,336,Wunderground v.1.15,2013-03-20 13:15:00,
2013-03-20 09:20:00,71.6,69.2,29.88,ENE,73,0.0,0.0,92,0.00,,,0.01,355,Wunderground v.1.15,2013-03-20 13:20:00,
2013-03-20 09:30:00,73.3,69.5,29.90,ENE,73,0.0,0.0,88,0.00,,,0.01,406,Wunderground v.1.15,2013-03-20 13:30:00,
2013-03-20 09:35:00,74.0,68.9,29.90,ENE,73,0.0,0.0,84,0.00,,,0.01,428,Wunderground v.1.15,2013-03-20 13:35:00,
2013-03-20 09:40:00,74.6,68.0,29.90,ENE,73,0.0,0.0,80,0.00,,,0.01,428,Wunderground v.1.15,2013-03-20 13:40:00,
2013-03-20 09:45:00,75.6,68.3,29.90,ENE,73,0.0,0.0,78,0.00,,,0.01,472,Wunderground v.1.15,2013-03-20 13:45:00,
2013-03-20 09:55:00,77.0,67.3,29.90,ENE,73,0.0,0.0,72,0.00,,,0.01,466,Wunderground v.1.15,2013-03-20 13:55:00,
2013-03-20 10:00:00,77.9,66.5,29.90,ENE,73,0.0,0.0,68,0.00,,,0.01,296,Wunderground v.1.15,2013-03-20 14:00:00,
2013-03-20 10:10:00,78.8,66.0,29.90,ENE,73,0.0,0.0,65,0.00,,,0.01,540,Wunderground v.1.15,2013-03-20 14:10:00,
2013-03-20 10:15:00,79.4,66.6,29.90,ENE,73,0.0,0.0,65,0.00,,,0.01,503,Wunderground v.1.15,2013-03-20 14:15:00,
2013-03-20 10:25:00,79.0,66.2,29.90,ENE,73,0.0,0.0,65,0.00,,,0.01,552,Wunderground v.1.15,2013-03-20 14:25:00,
2013-03-20 10:30:00,79.8,66.5,29.89,ENE,73,0.0,0.0,64,0.00,,,0.01,663,Wunderground v.1.15,2013-03-20 14:30:00,
2013-03-20 10:35:00,80.1,65.9,29.89,ENE,73,0.0,0.0,62,0.00,,,0.01,560,Wunderground v.1.15,2013-03-20 14:35:00,
2013-03-20 10:40:00,80.3,65.6,29.89,ENE,72,0.0,0.0,61,0.00,,,0.01,313,Wunderground v.1.15,2013-03-20 14:40:00,
2013-03-20 10:45:00,80.7,65.5,29.88,NE,56,0.0,1.0,60,0.00,,,0.01,684,Wunderground v.1.15,2013-03-20 14:45:00,
2013-03-20 10:55:00,81.1,64.9,29.88,NE,45,0.0,0.0,58,0.00,,,0.01,690,Wunderground v.1.15,2013-03-20 14:55:00,
2013-03-20 11:00:00,81.2,64.5,29.88,NE,45,0.0,0.0,57,0.00,,,0.01,723,Wunderground v.1.15,2013-03-20 15:00:00,
2013-03-20 11:10:00,81.8,64.1,29.88,West,263,0.0,0.0,55,0.00,,,0.01,750,Wunderground v.1.15,2013-03-20 15:10:00,
2013-03-20 11:15:00,82.0,64.2,29.88,WNW,292,0.0,0.0,55,0.00,,,0.01,482,Wunderground v.1.15,2013-03-20 15:15:00,
2013-03-20 11:20:00,82.0,64.8,29.88,NNE,30,0.0,0.0,56,0.00,,,0.01,304,Wunderground v.1.15,2013-03-20 15:20:00,
2013-03-20 11:30:00,81.1,64.4,29.88,NW,309,0.0,3.0,57,0.00,,,0.01,560,Wunderground v.1.15,2013-03-20 15:30:00,
2013-03-20 11:35:00,81.1,64.4,29.88,NW,319,1.0,3.0,57,0.00,,,0.01,429,Wunderground v.1.15,2013-03-20 15:35:00,
2013-03-20 11:40:00,81.4,64.7,29.88,NW,323,1.0,1.0,57,0.00,,,0.01,834,Wunderground v.1.15,2013-03-20 15:40:00,
2013-03-20 11:45:00,82.2,65.4,29.87,NW,323,0.0,1.0,57,0.00,,,0.01,716,Wunderground v.1.15,2013-03-20 15:45:00,
2013-03-20 11:50:00,82.4,65.6,29.87,NNE,16,0.0,4.0,57,0.00,,,0.01,801,Wunderground v.1.15,2013-03-20 15:50:00,
2013-03-20 11:55:00,82.8,65.0,29.87,NNW,340,1.0,4.0,55,0.00,,,0.01,757,Wunderground v.1.15,2013-03-20 15:55:00,
2013-03-20 15:05:00,88.6,63.2,29.76,SSE,160,2.0,2.0,43,0.00,,,0.01,787,Wunderground v.1.15,2013-03-20 19:05:00,
2013-03-20 15:10:00,88.8,62.7,29.76,NE,44,1.0,5.0,42,0.00,,,0.01,774,Wunderground v.1.15,2013-03-20 19:10:00,
2013-03-20 15:15:00,88.8,63.4,29.76,NE,40,3.0,3.0,43,0.00,,,0.01,751,Wunderground v.1.15,2013-03-20 19:15:00,
2013-03-20 15:20:00,89.0,62.9,29.76,North,11,2.0,3.0,42,0.00,,,0.01,757,Wunderground v.1.15,2013-03-20 19:20:00,
2013-03-20 15:25:00,88.6,63.2,29.76,ENE,75,1.0,1.0,43,0.00,,,0.01,764,Wunderground v.1.15,2013-03-20 19:25:00,
2013-03-20 15:30:00,89.3,63.2,29.75,East,83,3.0,6.0,42,0.00,,,0.01,794,Wunderground v.1.15,2013-03-20 19:30:00,
2013-03-20 15:35:00,89.0,63.6,29.75,ENE,71,4.0,4.0,43,0.00,,,0.01,301,Wunderground v.1.15,2013-03-20 19:35:00,
2013-03-20 15:45:00,89.3,63.2,29.75,ENE,68,2.0,6.0,42,0.00,,,0.01,874,Wunderground v.1.15,2013-03-20 19:45:00,
2013-03-20 15:50:00,88.6,63.9,29.75,East,92,3.0,6.0,44,0.00,,,0.01,216,Wunderground v.1.15,2013-03-20 19:50:00,
2013-03-20 15:55:00,88.0,63.4,29.75,North,0,3.0,6.0,44,0.00,,,0.01,238,Wunderground v.1.15,2013-03-20 19:55:00,
2013-03-20 16:00:00,87.4,64.1,29.74,NE,40,2.0,2.0,46,0.00,,,0.01,236,Wunderground v.1.15,2013-03-20 20:00:00,
2013-03-20 16:10:00,88.8,59.9,29.74,East,99,2.0,2.0,38,0.00,,,0.01,716,Wunderground v.1.15,2013-03-20 20:10:00,
2013-03-20 16:15:00,89.7,59.2,29.74,ENE,73,2.0,3.0,36,0.00,,,0.01,709,Wunderground v.1.15,2013-03-20 20:15:00,
2013-03-20 16:20:00,89.5,59.8,29.74,ESE,110,4.0,6.0,37,0.00,,,0.01,683,Wunderground v.1.15,2013-03-20 20:20:00,
2013-03-20 16:25:00,89.3,60.4,29.74,SE,134,5.0,6.0,38,0.00,,,0.01,649,Wunderground v.1.15,2013-03-20 20:25:00,
2013-03-20 16:35:00,89.3,60.4,29.73,East,89,2.0,3.0,38,0.00,,,0.01,204,Wunderground v.1.15,2013-03-20 20:35:00,
2013-03-20 16:40:00,88.8,60.7,29.73,East,85,2.0,5.0,39,0.00,,,0.01,169,Wunderground v.1.15,2013-03-20 20:40:00,
2013-03-20 16:45:00,88.0,61.3,29.73,ESE,116,3.0,5.0,41,0.00,,,0.01,223,Wunderground v.1.15,2013-03-20 20:45:00,
2013-03-20 16:50:00,87.6,62.3,29.73,SSE,150,2.0,2.0,43,0.00,,,0.01,216,Wunderground v.1.15,2013-03-20 20:50:00,
2013-03-20 16:55:00,87.2,62.0,29.73,SE,144,1.0,2.0,43,0.00,,,0.01,116,Wunderground v.1.15,2013-03-20 20:55:00,
2013-03-20 17:00:00,86.7,61.5,29.72,SSE,147,1.0,1.0,43,0.00,,,0.01,111,Wunderground v.1.15,2013-03-20 21:00:00,
2013-03-20 17:10:00,85.9,62.7,29.72,SE,145,1.0,3.0,46,0.00,,,0.01,46,Wunderground v.1.15,2013-03-20 21:10:00,
2013-03-20 17:15:00,85.5,68.0,29.72,ESE,113,1.0,3.0,56,1.27,,,0.06,51,Wunderground v.1.15,2013-03-20 21:15:00,
2013-03-20 17:20:00,84.9,69.0,29.72,ESE,113,0.0,0.0,59,0.13,,,0.07,91,Wunderground v.1.15,2013-03-20 21:20:00,
2013-03-20 17:25:00,84.5,70.0,29.72,ESE,113,0.0,0.0,62,0.06,,,0.07,90,Wunderground v.1.15,2013-03-20 21:25:00,
2013-03-20 17:35:00,82.6,69.2,29.72,NNE,17,0.0,0.0,64,0.00,,,0.07,46,Wunderground v.1.15,2013-03-20 21:35:00,
2013-03-20 17:40:00,81.4,68.5,29.72,North,8,0.0,0.0,65,0.00,,,0.07,48,Wunderground v.1.15,2013-03-20 21:40:00,
2013-03-20 17:45:00,80.1,66.4,29.72,North,8,0.0,0.0,63,0.00,,,0.07,121,Wunderground v.1.15,2013-03-20 21:45:00,
2013-03-20 17:50:00,79.4,66.6,29.72,North,8,0.0,0.0,65,0.00,,,0.07,130,Wunderground v.1.15,2013-03-20 21:50:00,
2013-03-20 17:55:00,78.8,66.5,29.72,North,8,0.0,0.0,66,0.00,,,0.07,128,Wunderground v.1.15,2013-03-20 21:55:00,
2013-03-20 18:00:00,78.3,66.0,29.73,North,356,1.0,1.0,66,0.00,,,0.07,79,Wunderground v.1.15,2013-03-20 22:00:00,
2013-03-20 18:10:00,77.2,65.0,29.73,NE,44,1.0,1.0,66,0.00,,,0.07,46,Wunderground v.1.15,2013-03-20 22:10:00,
2013-03-20 18:15:00,76.8,65.0,29.74,NW,319,1.0,6.0,67,0.00,,,0.07,39,Wunderground v.1.15,2013-03-20 22:15:00,
2013-03-20 18:20:00,76.7,65.3,29.74,NNE,23,2.0,2.0,68,0.00,,,0.07,44,Wunderground v.1.15,2013-03-20 22:20:00,
2013-03-20 18:25:00,76.7,66.2,29.74,NNE,30,1.0,2.0,70,0.00,,,0.07,53,Wunderground v.1.15,2013-03-20 22:25:00,
2013-03-20 18:30:00,76.7,67.0,29.74,NNE,21,0.0,0.0,72,0.00,,,0.07,55,Wunderground v.1.15,2013-03-20 22:30:00,
2013-03-20 18:35:00,76.5,66.8,29.74,NNE,21,0.0,0.0,72,0.00,,,0.07,46,Wunderground v.1.15,2013-03-20 22:35:00,
2013-03-20 18:45:00,76.5,67.6,29.75,NNE,21,0.0,0.0,74,0.00,,,0.07,25,Wunderground v.1.15,2013-03-20 22:45:00,
2013-03-20 18:50:00,76.1,66.8,29.75,NNE,21,0.0,0.0,73,0.00,,,0.07,14,Wunderground v.1.15,2013-03-20 22:50:00,
2013-03-20 18:55:00,76.1,66.8,29.75,NNE,21,0.0,0.0,73,0.00,,,0.07,11,Wunderground v.1.15,2013-03-20 22:55:00,
2013-03-20 19:00:00,76.1,67.2,29.76,NNE,21,0.0,0.0,74,0.00,,,0.07,12,Wunderground v.1.15,2013-03-20 23:00:00,
2013-03-20 19:10:00,76.0,67.9,29.76,NNE,21,0.0,0.0,76,0.00,,,0.07,11,Wunderground v.1.15,2013-03-20 23:10:00,
2013-03-20 19:15:00,76.0,67.9,29.76,NNE,21,0.0,0.0,76,0.00,,,0.07,7,Wunderground v.1.15,2013-03-20 23:15:00,
2013-03-20 19:20:00,75.6,66.7,29.76,ESE,110,0.0,2.0,74,0.00,,,0.07,0,Wunderground v.1.15,2013-03-20 23:20:00,
2013-03-20 19:30:00,74.9,58.6,29.76,ESE,107,2.0,2.0,57,0.00,,,0.07,0,Wunderground v.1.15,2013-03-20 23:30:00,
2013-03-20 19:35:00,75.3,58.5,29.76,East,89,2.0,5.0,56,0.00,,,0.07,0,Wunderground v.1.15,2013-03-20 23:35:00,
2013-03-20 19:40:00,75.6,57.8,29.76,East,95,1.0,3.0,54,0.00,,,0.07,0,Wunderground v.1.15,2013-03-20 23:40:00,
2013-03-20 19:45:00,75.8,58.0,29.77,East,95,0.0,3.0,54,0.00,,,0.07,0,Wunderground v.1.15,2013-03-20 23:45:00,
2013-03-20 19:50:00,76.0,57.6,29.77,ESE,107,0.0,5.0,53,0.00,,,0.07,0,Wunderground v.1.15,2013-03-20 23:50:00,
2013-03-20 19:55:00,76.0,57.6,29.77,SE,130,1.0,5.0,53,0.00,,,0.07,0,Wunderground v.1.15,2013-03-20 23:55:00,
2013-03-20 20:00:00,76.1,57.2,29.79,SE,127,2.0,2.0,52,0.00,,,0.07,0,Wunderground v.1.15,2013-03-21 00:00:00,
2013-03-20 20:10:00,76.0,57.1,29.79,SSE,151,2.0,2.0,52,0.00,,,0.07,0,Wunderground v.1.15,2013-03-21 00:10:00,
2013-03-20 20:20:00,75.6,57.3,29.80,SE,138,1.0,1.0,53,0.00,,,0.07,0,Wunderground v.1.15,2013-03-21 00:20:00,
2013-03-20 20:25:00,75.4,57.6,29.80,SE,138,2.0,2.0,54,0.00,,,0.07,0,Wunderground v.1.15,2013-03-21 00:25:00,
2013-03-20 20:30:00,75.3,58.0,29.80,SE,134,1.0,8.0,55,0.00,,,0.07,0,Wunderground v.1.15,2013-03-21 00:30:00,
2013-03-20 20:35:00,74.9,57.6,29.80,ESE,114,2.0,8.0,55,0.00,,,0.07,0,Wunderground v.1.15,2013-03-21 00:35:00,
2013-03-20 20:40:00,74.7,57.5,29.80,ESE,110,3.0,3.0,55,0.00,,,0.07,0,Wunderground v.1.15,2013-03-21 00:40:00,
2013-03-20 20:45:00,74.4,57.2,29.81,East,99,3.0,3.0,55,0.00,,,0.07,0,Wunderground v.1.15,2013-03-21 00:45:00,
2013-03-20 20:50:00,74.2,57.5,29.81,East,92,2.0,5.0,56,0.00,,,0.07,0,Wunderground v.1.15,2013-03-21 00:50:00,
2013-03-20 20:55:00,74.0,57.3,29.81,SE,128,1.0,5.0,56,0.00,,,0.07,0,Wunderground v.1.15,2013-03-21 00:55:00,
2013-03-20 21:00:00,73.9,57.7,29.83,ESE,113,2.0,6.0,57,0.00,,,0.07,0,Wunderground v.1.15,2013-03-21 01:00:00,
2013-03-20 21:10:00,73.5,57.8,29.83,East,96,3.0,7.0,58,0.00,,,0.07,0,Wunderground v.1.15,2013-03-21 01:10:00,
2013-03-20 21:15:00,73.5,57.8,29.83,East,79,4.0,7.0,58,0.00,,,0.07,0,Wunderground v.1.15,2013-03-21 01:15:00,
2013-03-20 21:20:00,73.3,57.6,29.83,East,90,3.0,3.0,58,0.00,,,0.07,0,Wunderground v.1.15,2013-03-21 01:20:00,
2013-03-20 21:25:00,73.2,58.0,29.83,SE,138,1.0,3.0,59,0.00,,,0.07,0,Wunderground v.1.15,2013-03-21 01:25:00,
2013-03-20 21:30:00,73.2,58.0,29.83,SE,144,2.0,2.0,59,0.00,,,0.07,0,Wunderground v.1.15,2013-03-21 01:30:00,
2013-03-20 21:35:00,73.0,57.8,29.83,SE,133,4.0,4.0,59,0.00,,,0.07,0,Wunderground v.1.15,2013-03-21 01:35:00,
2013-03-20 21:40:00,72.8,57.6,29.83,South,169,5.0,5.0,59,0.00,,,0.07,0,Wunderground v.1.15,2013-03-21 01:40:00,
2013-03-20 21:50:00,72.7,58.5,29.87,ENE,75,5.0,8.0,61,0.00,,,0.07,0,Wunderground v.1.15,2013-03-21 01:50:00,
2013-03-20 21:55:00,72.5,58.7,29.87,SSE,150,6.0,8.0,62,0.00,,,0.07,0,Wunderground v.1.15,2013-03-21 01:55:00,
2013-03-20 22:00:00,72.0,59.2,29.87,East,99,6.0,6.0,64,0.00,,,0.07,0,Wunderground v.1.15,2013-03-21 02:00:00,
2013-03-20 22:10:00,71.1,58.7,29.87,East,96,5.0,7.0,65,0.00,,,0.07,0,Wunderground v.1.15,2013-03-21 02:10:00,
2013-03-20 22:15:00,70.8,58.9,29.88,ESE,120,4.0,7.0,66,0.00,,,0.07,0,Wunderground v.1.15,2013-03-21 02:15:00,
2013-03-20 22:20:00,70.4,58.9,29.88,East,100,4.0,4.0,67,0.00,,,0.07,0,Wunderground v.1.15,2013-03-21 02:20:00,
2013-03-20 22:30:00,69.8,59.2,29.84,ESE,103,4.0,6.0,69,0.00,,,0.07,0,Wunderground v.1.15,2013-03-21 02:30:00,
2013-03-20 22:35:00,69.4,59.2,29.84,SE,124,4.0,6.0,70,0.00,,,0.07,0,Wunderground v.1.15,2013-03-21 02:35:00,